Regional Weather Roundup
Issued by NWS

Home | Current Version | Previous Version | Text Only | Print | Product List | Glossary On
Versions: 1 2 3 4 5 6 7 8 9 10 11 12 13 14 15 16 17 18 19 20 21 22 23 24 25 26 27 28 29 30 31 32 33 34 35 36 37 38 39 40 41 42 43 44 45 46 47 48 49 50
000
ASUS44 KLUB 222301
RWRTX
WEST TEXAS WEATHER ROUNDUP
NATIONAL WEATHER SERVICE LUBBOCK TX
600 PM CDT SAT JUL 22 2017

NOTE: "FAIR" INDICATES FEW OR NO CLOUDS BELOW 12,000 FEET WITH NO
SIGNIFICANT WEATHER AND/OR OBSTRUCTIONS TO VISIBILITY.

TXZ004-006>008-010-012-014-016-OKZ002-230000-
TEXAS PANHANDLE/OKLAHOMA PANHANDLE

CITY           SKY/WX    TMP DP  RH WIND       PRES   REMARKS
AMARILLO       CLOUDY    82  59  45 E13       29.99F
BORGER         CLOUDY    90  56  31 S17       29.93F
CANADIAN       MOSUNNY  102  57  22 SW7       29.85F HX 101
DALHART        MOSUNNY   98  52  21 E13       29.98F HX  95
DUMAS          MOSUNNY   90  57  32 SE22G32   29.97R
GUYMON         SUNNY    101  50  18 NE8       29.90F HX  98
PERRYTON       MOSUNNY   99  56  23 S12G17    29.89F HX  98
$$

TXZ026-029-035-045-048-230000-
SOUTHERN PANHANDLE/SOUTH PLAINS/ROLLING PLAINS

CITY           SKY/WX    TMP DP  RH WIND       PRES   REMARKS
CHILDRESS      CLOUDY    99  56  23 S15       29.86F HX  97
SEMINOLE       CLOUDY    91  60  34 S10G16    29.97F
LUBBOCK        MOSUNNY   95  57  27 S15       29.94F THUNDER
PLAINVIEW      SUNNY     94  55  26 SW5       29.95S
SNYDER         MOSUNNY   97  59  27 S16       29.91S HX  96
$$

TXZ052-054-060>062-072-078-127-140-154-169-230000-
PERMIAN BASIN/CONCHO VALLEY/BIG COUNTRY/EDWARDS PLATEAU

CITY           SKY/WX    TMP DP  RH WIND       PRES   REMARKS
ABILENE        SUNNY    100  60  26 SE15G22   29.86F HX 100
BIG SPRING     CLOUDY    85  62  45 W8        29.96F
BROWNWOOD      RAIN      99  63  30 S9        29.86F HX 100
JUNCTION       MOSUNNY   99  60  27 SE14G20   29.88F HX  99
MIDLAND        TSTM      72  67  84 SE24G30   30.00R
ODESSA         TSTM      73  68  84 SE18G28   30.04R
SAN ANGELO     MOSUNNY   99  56  23 SE13      29.87F HX  97
SONORA         SUNNY     95  61  31 SE9G17    29.95F HX  95
SWEETWATER     SUNNY     99  55  23 SE13      29.92F HX  97
$$

TXZ055-058-074-075-080-082-230000-
FAR WEST/SOUTHWEST MOUNTAINS/TRANS PECOS

CITY           SKY/WX    TMP DP  RH WIND       PRES   REMARKS
ALPINE         CLOUDY    87  57  36 SE12G23   30.10S
EL PASO        TSTM      74  70  87 SE16G26   30.02R
FORT STOCKTON  MOSUNNY   93  60  33 SE16G23   29.92F
GUADALUPE PASS CLOUDY    79  62  56 S7        30.15F
MARFA          CLOUDY    86  55  34 S9        30.08F
PRESIDIO       FAIR      93  63  35 S5        29.95S
$$

TXZ014-016-019-021>030-083-230000
TEXAS TECH WEST TEXAS MESONET/TEXAS PANHANDLE/NORTHERN SOUTH PLAINS

CITY           SKY/WX    TMP DP  RH WIND       PRES   REMARKS
ABERNATHY 5ENE   N/A     96  54  24 S13       29.95F
AMARILLO 9NNE    N/A     85  61  43 SE17      29.97F
AMARILLO 7SSE    N/A     78  58  48 E3        30.01R
AMHERST 1NE      N/A     94  53  24 S9        29.96F
BOOTLEG 11WNW    N/A     81  56  42 S9        30.05S
CANADIAN 6E      N/A    103  56  20 SW6       29.85F HX 102
CAPROCK CYN SP   N/A     96  52  22 S5        29.90F
CHILDRESS 2NNE   N/A    101  55  21 SE12      29.85F HX 100
CLARENDON 2WSW   N/A     85  61  43 SW18      29.92R
CLAUDE 12SW      N/A     83  57  41 N9        30.01R
DIMMITT 2NE      N/A     89  54  29 N13G22    30.01R
FLOYDADA 2NNE    N/A     96  51  21 S12       29.94F
FRIONA 2NE       N/A     86  56  36 NE12      30.02R
GOODLETT 3W      N/A    105  52  17 S8        29.82F HX 103
HART 3N          N/A     85  53  33 N25       30.00R
HEREFORD 2NW     N/A     86  50  28 E14       30.00R
MCLEAN 1E        N/A     97  54  23 SE17      29.90F
MEMPHIS 1NE      N/A    100  54  21 E12       29.86F HX  98
MULESHOE 2SSW    N/A     94  51  23 SE6       29.98S
OLTON 6S         N/A     95  52  23 S5        29.96F
PALO DURO SP     N/A     76  59  56 NE10      30.02R
PAMPA 2E         N/A     88  57  35 S7        29.95S
PLAINVIEW 1S     N/A     95  55  25 S7        29.96S
SILVERTON 7ESE   N/A     94  51  23 S8        29.94S
TULIA 2ENE       N/A     83  52  34 NW22      30.00R
TURKEY 2WSW      N/A    101  53  20 S12       29.87F HX  99
UMBARGER 3NNE    N/A     81  54  38 S21       30.01S
$$

TXZ033>036-039>041-045>048-230000
TEXAS TECH WEST TEXAS MESONET/SOUTH PLAINS

CITY           SKY/WX    TMP DP  RH WIND       PRES   REMARKS
AIKEN 3WSW       N/A     96  57  27 SW8       29.96F
ANDREWS 2NE      N/A     82  64  54 SE8       29.99R
ANTON 6SSW       N/A     96  55  24 S12       29.95F
BROWNFIELD 2S    N/A     94  57  28 S16       29.96S
DENVR CTY 7WNW   N/A     88  54  31 S14       29.98S
GAIL 2ESE        N/A     78  63  58 SW17      29.93R
LAMESA 2SE       N/A     81  64  56 S20G29    29.98R
LEVELLAND 4S     N/A     92  55  29 S16       29.96F
LUBBOCK 3WNW     N/A     94  56  28 SE10      29.94F
MORTON 1ENE      N/A     95  54  25 S9        29.97F
ODONNELL 1N      N/A     89  56  32 SW15      29.94F
PLAINS 3N        N/A     91  56  30 S16       29.97F
RALLS 1SE        N/A     96  56  26 S8        29.94F
REESE CENTER     N/A     96  53  23 S8        29.94F
SEAGRAVES 1SW    N/A     93  56  28 SE14      29.97S
SEMINOLE 2NNE    N/A     92  57  30 S15       29.96F
SLATON 2NE       N/A     96  54  24 SE8       29.93F
SNYDER 3E        N/A     97  55  25 SE14      29.90S HX  95
SUNDOWN 8SW      N/A     85  61  43 E22       29.98R
TAHOKA 3NNE      N/A     91  60  35 SW10      29.93S
WOLFFORTH 6SSW   N/A     92  55  28 SW12      29.95S
$$

TXZ031-032-036>038-042>044-230000-
TEXAS TECH WEST TEXAS MESONET/ROLLING PLAINS

CITY           SKY/WX    TMP DP  RH WIND       PRES   REMARKS
ASPERMONT 3NE    N/A    102  58  23 SE9       29.84F HX 102
FLUVANNA 3WNW    N/A     92  56  29 S21G31    29.93R
GRAHAM 5SSW    LGT RAIN  81  65  58 S32G51    29.94R
GUTHRIE 10WSW    N/A    102  55  20 SE9       29.85F HX 101
HASKELL 1NW      N/A     99  56  23 SE10      29.84F HX  98
JAYTON 1SSE      N/A    102  54  19 SE13      29.86F HX 100
KNOX CITY 3NW    N/A    103  55  20 SE13      29.83F HX 101
LK A HENRY 1NW   N/A     99  53  21 SE14      29.87F HX  97
NORTHFIELD 1S    N/A    103  55  20 S15       29.84F HX 101
ODELL 4ENE       N/A    102  59  24 SE10      29.83F HX 102
PADUCAH 10SW     N/A    101  55  21 SE15      29.85F HX  99
POST 1NE         N/A     88  58  35 NE9       29.89F
RRING SPRGS 3N   N/A     98  56  24 S14       29.89F HX  96
SEYMOUR 3NW      N/A    104  55  19 S10       29.82F HX 102
SPUR 1W          N/A     98  52  21 S8        29.87F HX  96
WEINERT 2NNE     N/A    102  60  25 S3        29.84F HX 103
WHITE RVR 6NE    N/A     99  53  21 S8        29.89F HX  97
$$

TXZ052-054-060>062-072-078-127-140-154-169-230000-
TEXAS TECH WEST TEXAS MESONET/PERMIAN BASIN/
CONCHO VALLEY/BIG COUNTRY/EDWARDS PLATEAU

CITY           SKY/WX    TMP DP  RH WIND       PRES   REMARKS
COYANOSA 2N      N/A     96  61  32 S13       29.89F HX  96
JUNCTION 1SSW    N/A     97  62  31 S5        29.89F HX  97
MERTZON 3NNE     N/A     90  62  39 SE21      29.92S
SAN ANGELO 7NW   N/A    100  55  22 SE10      29.88F HX  98
STRLNG CT 4WSW   N/A     86  61  43 SW7       29.93F
ST LAWRNCE 5SW   N/A     84  64  50 S9        29.95F
SWEETWATR 11SW   N/A     99  60  27 SE14      29.92F HX  99
WALL 1E          N/A    100  60  26 S9        29.89F HX  99
$$

TXZ055-058-074-075-080-082-230000-
TEXAS TECH WEST TEXAS MESONET/FAR WEST/SOUTHWEST MOUNTAINS/TRANS PECOS

CITY           SKY/WX    TMP DP  RH WIND       PRES   REMARKS
PRSMN GAP BBNP   N/A     92  60  33 SE16      29.94S
GUADLPE MTN NP   N/A     77  58  51 SW6       30.16F
$$



USA.gov is the U.S. government's official web portal to all federal, state and local government web resources and services.